Time,TemperatureF,DewpointF,PressureIn,WindDirection,WindDirectionDegrees,WindSpeedMPH,WindSpeedGustMPH,Humidity,HourlyPrecipIn,Conditions,Clouds,dailyrainin,SoftwareType,DateUTC
2013-01-12 00:02:00,66.0,65.0,30.03,ESE,120,1.0,-999.0,97,-99.99,,,0.06,,2013-01-12 06:02:00,
2013-01-12 00:12:00,66.0,65.0,30.03,ESE,120,1.0,-999.0,97,-99.99,,,0.06,,2013-01-12 06:12:00,
2013-01-12 00:22:00,66.0,65.0,30.03,South,175,0.0,-999.0,97,-99.99,,,0.06,,2013-01-12 06:22:00,
2013-01-12 00:32:00,66.0,65.0,30.03,SSE,149,1.0,-999.0,97,-99.99,,,0.06,,2013-01-12 06:32:00,
2013-01-12 00:42:00,66.0,65.0,30.03,SSE,149,1.0,-999.0,97,-99.99,,,0.06,,2013-01-12 06:42:00,
2013-01-12 00:52:00,66.0,65.0,30.03,SSW,210,1.0,-999.0,97,-99.99,,,0.06,,2013-01-12 06:52:00,
2013-01-12 01:02:00,66.0,65.0,30.03,SSW,212,3.0,-999.0,96,-99.99,,,0.06,,2013-01-12 07:02:00,
2013-01-12 01:12:00,67.0,66.0,30.04,SSE,148,3.0,-999.0,95,-99.99,,,0.06,,2013-01-12 07:12:00,
2013-01-12 01:22:00,67.0,66.0,30.04,SSE,148,3.0,-999.0,95,-99.99,,,0.06,,2013-01-12 07:22:00,
2013-01-12 01:32:00,67.0,65.0,30.04,SSW,197,2.0,-999.0,94,-99.99,,,0.06,,2013-01-12 07:32:00,
2013-01-12 01:42:00,67.0,65.0,30.04,SSW,197,2.0,-999.0,94,-99.99,,,0.06,,2013-01-12 07:42:00,
2013-01-12 01:52:00,66.0,64.0,30.04,South,185,2.0,-999.0,94,-99.99,,,0.06,,2013-01-12 07:52:00,
2013-01-12 02:02:00,66.0,65.0,30.05,South,185,0.0,-999.0,95,-99.99,,,0.06,,2013-01-12 08:02:00,
2013-01-12 02:11:00,66.0,65.0,30.05,South,185,0.0,-999.0,95,-99.99,,,0.06,,2013-01-12 08:11:00,
2013-01-12 02:22:00,66.0,65.0,30.05,South,185,1.0,-999.0,95,-99.99,,,0.06,,2013-01-12 08:22:00,
2013-01-12 02:32:00,65.0,64.0,30.05,South,185,0.0,-999.0,96,-99.99,,,0.06,,2013-01-12 08:32:00,
2013-01-12 02:42:00,65.0,64.0,30.05,South,185,0.0,-999.0,96,-99.99,,,0.06,,2013-01-12 08:42:00,
2013-01-12 02:52:00,65.0,64.0,30.05,SSE,166,1.0,-999.0,96,-99.99,,,0.06,,2013-01-12 08:52:00,
2013-01-12 03:02:00,65.0,64.0,30.04,South,169,1.0,-999.0,96,-99.99,,,0.06,,2013-01-12 09:02:00,
2013-01-12 03:12:00,65.0,64.0,30.04,South,169,1.0,-999.0,96,-99.99,,,0.06,,2013-01-12 09:12:00,
2013-01-12 03:22:00,66.0,65.0,30.04,SSE,165,1.0,-999.0,95,-99.99,,,0.06,,2013-01-12 09:22:00,
2013-01-12 03:32:00,66.0,65.0,30.03,South,191,2.0,-999.0,96,-99.99,,,0.06,,2013-01-12 09:32:00,
2013-01-12 03:42:00,66.0,65.0,30.03,South,191,2.0,-999.0,96,-99.99,,,0.06,,2013-01-12 09:42:00,
2013-01-12 03:53:00,66.0,65.0,30.03,South,184,2.0,-999.0,96,-99.99,,,0.06,,2013-01-12 09:53:00,
2013-01-12 04:02:00,66.0,65.0,30.02,South,169,1.0,-999.0,95,-99.99,,,0.06,,2013-01-12 10:02:00,
2013-01-12 04:12:00,66.0,65.0,30.02,South,169,1.0,-999.0,95,-99.99,,,0.06,,2013-01-12 10:12:00,
2013-01-12 04:22:00,66.0,65.0,30.01,SE,139,1.0,-999.0,95,-99.99,,,0.06,,2013-01-12 10:22:00,
2013-01-12 04:32:00,66.0,65.0,30.01,ESE,108,1.0,-999.0,95,-99.99,,,0.06,,2013-01-12 10:32:00,
2013-01-12 04:42:00,66.0,65.0,30.01,ESE,108,1.0,-999.0,95,-99.99,,,0.06,,2013-01-12 10:42:00,
2013-01-12 04:52:00,66.0,65.0,30.01,SSE,160,1.0,-999.0,95,-99.99,,,0.06,,2013-01-12 10:52:00,
2013-01-12 05:02:00,66.0,65.0,30.01,SSE,164,0.0,-999.0,95,-99.99,,,0.06,,2013-01-12 11:02:00,
2013-01-12 05:12:00,66.0,65.0,30.01,SSE,164,0.0,-999.0,95,-99.99,,,0.06,,2013-01-12 11:12:00,
2013-01-12 05:22:00,66.0,64.0,30.01,SE,132,1.0,-999.0,94,-99.99,,,0.06,,2013-01-12 11:22:00,
2013-01-12 05:32:00,66.0,64.0,30.02,SW,216,1.0,-999.0,94,-99.99,,,0.06,,2013-01-12 11:32:00,
2013-01-12 05:42:00,66.0,64.0,30.02,SW,216,1.0,-999.0,94,-99.99,,,0.06,,2013-01-12 11:42:00,
2013-01-12 05:53:00,66.0,64.0,30.02,South,174,2.0,-999.0,94,-99.99,,,0.06,,2013-01-12 11:53:00,
2013-01-12 06:02:00,66.0,65.0,30.02,South,183,1.0,-999.0,95,-99.99,,,0.06,,2013-01-12 12:02:00,
2013-01-12 06:12:00,66.0,65.0,30.02,South,183,1.0,-999.0,95,-99.99,,,0.06,,2013-01-12 12:12:00,
2013-01-12 06:22:00,67.0,66.0,30.02,South,177,2.0,-999.0,95,-99.99,,,0.06,,2013-01-12 12:22:00,
2013-01-12 06:32:00,67.0,66.0,30.02,South,172,1.0,-999.0,95,-99.99,,,0.06,,2013-01-12 12:32:00,
2013-01-12 06:42:00,67.0,66.0,30.02,South,172,1.0,-999.0,95,-99.99,,,0.06,,2013-01-12 12:42:00,
2013-01-12 06:53:00,67.0,66.0,30.03,SE,128,2.0,-999.0,96,-99.99,,,0.07,,2013-01-12 12:53:00,
2013-01-12 07:02:00,66.0,65.0,30.02,ESE,110,2.0,-999.0,96,-99.99,,,0.08,,2013-01-12 13:02:00,
2013-01-12 07:12:00,66.0,65.0,30.02,ESE,110,2.0,-999.0,96,-99.99,,,0.08,,2013-01-12 13:12:00,
2013-01-12 07:22:00,66.0,65.0,30.04,SSE,148,1.0,-999.0,97,-99.99,,,0.08,,2013-01-12 13:22:00,
2013-01-12 07:33:00,66.0,65.0,30.04,South,183,1.0,-999.0,97,-99.99,,,0.08,,2013-01-12 13:33:00,
2013-01-12 07:42:00,66.0,65.0,30.04,South,183,1.0,-999.0,97,-99.99,,,0.08,,2013-01-12 13:42:00,
2013-01-12 07:53:00,66.0,65.0,30.04,SE,132,2.0,-999.0,97,-99.99,,,0.08,,2013-01-12 13:53:00,
2013-01-12 08:02:00,66.0,65.0,30.04,SE,137,1.0,-999.0,97,-99.99,,,0.08,,2013-01-12 14:02:00,
2013-01-12 08:12:00,66.0,65.0,30.04,SE,137,1.0,-999.0,97,-99.99,,,0.08,,2013-01-12 14:12:00,
2013-01-12 08:22:00,66.0,65.0,30.05,SSE,156,1.0,-999.0,97,-99.99,,,0.08,,2013-01-12 14:22:00,
2013-01-12 08:33:00,66.0,65.0,30.05,East,94,2.0,-999.0,97,-99.99,,,0.08,,2013-01-12 14:33:00,
2013-01-12 08:43:00,66.0,65.0,30.05,East,94,2.0,-999.0,97,-99.99,,,0.08,,2013-01-12 14:43:00,
2013-01-12 08:53:00,67.0,66.0,30.05,SE,137,1.0,-999.0,98,-99.99,,,0.08,,2013-01-12 14:53:00,
2013-01-12 09:03:00,67.0,66.0,30.05,SE,137,1.0,-999.0,98,-99.99,,,0.08,,2013-01-12 15:03:00,
2013-01-12 09:12:00,67.0,66.0,30.05,SE,137,1.0,-999.0,98,-99.99,,,0.08,,2013-01-12 15:12:00,
2013-01-12 09:22:00,68.0,67.0,30.05,SSE,168,3.0,-999.0,96,-99.99,,,0.08,,2013-01-12 15:22:00,
2013-01-12 09:33:00,68.0,66.0,30.05,SSW,194,3.0,-999.0,94,-99.99,,,0.08,,2013-01-12 15:33:00,
2013-01-12 09:43:00,68.0,66.0,30.05,SSW,194,3.0,-999.0,94,-99.99,,,0.08,,2013-01-12 15:43:00,
2013-01-12 09:52:00,69.0,67.0,30.06,East,95,5.0,-999.0,92,-99.99,,,0.08,,2013-01-12 15:52:00,
2013-01-12 10:03:00,69.0,66.0,30.06,SW,221,4.0,-999.0,91,-99.99,,,0.08,,2013-01-12 16:03:00,
2013-01-12 10:12:00,69.0,66.0,30.06,SW,221,4.0,-999.0,91,-99.99,,,0.08,,2013-01-12 16:12:00,
2013-01-12 10:23:00,69.0,66.0,30.06,SSE,160,4.0,-999.0,90,-99.99,,,0.08,,2013-01-12 16:23:00,
2013-01-12 10:33:00,69.0,66.0,30.06,South,170,3.0,-999.0,90,-99.99,,,0.08,,2013-01-12 16:33:00,
2013-01-12 10:42:00,69.0,66.0,30.06,South,170,3.0,-999.0,90,-99.99,,,0.08,,2013-01-12 16:42:00,
2013-01-12 10:53:00,69.0,66.0,30.05,SSW,201,3.0,-999.0,90,-99.99,,,0.08,,2013-01-12 16:53:00,
2013-01-12 11:02:00,69.0,66.0,30.04,South,185,3.0,-999.0,90,-99.99,,,0.08,,2013-01-12 17:02:00,
2013-01-12 11:12:00,69.0,66.0,30.04,South,185,3.0,-999.0,90,-99.99,,,0.08,,2013-01-12 17:12:00,
2013-01-12 11:22:00,69.0,66.0,30.04,WNW,295,2.0,-999.0,89,-99.99,,,0.08,,2013-01-12 17:22:00,
2013-01-12 11:33:00,70.0,66.0,30.03,SW,223,3.0,-999.0,88,-99.99,,,0.08,,2013-01-12 17:33:00,
2013-01-12 11:42:00,70.0,66.0,30.03,SW,223,3.0,-999.0,88,-99.99,,,0.08,,2013-01-12 17:42:00,
2013-01-12 11:53:00,70.0,66.0,30.03,WSW,249,1.0,-999.0,87,-99.99,,,0.08,,2013-01-12 17:53:00,
2013-01-12 12:03:00,70.0,66.0,30.01,South,171,2.0,-999.0,86,-99.99,,,0.08,,2013-01-12 18:03:00,
2013-01-12 12:12:00,70.0,66.0,30.01,South,171,2.0,-999.0,86,-99.99,,,0.08,,2013-01-12 18:12:00,
2013-01-12 12:22:00,70.0,66.0,30.01,South,189,2.0,-999.0,87,-99.99,,,0.08,,2013-01-12 18:22:00,
2013-01-12 12:33:00,70.0,66.0,30.00,SSW,209,1.0,-999.0,87,-99.99,,,0.08,,2013-01-12 18:33:00,
2013-01-12 12:42:00,70.0,66.0,30.00,SSW,209,1.0,-999.0,87,-99.99,,,0.08,,2013-01-12 18:42:00,
2013-01-12 12:53:00,70.0,66.0,30.00,SSW,197,0.0,-999.0,87,-99.99,,,0.08,,2013-01-12 18:53:00,
2013-01-12 13:03:00,70.0,66.0,30.00,SSW,193,3.0,-999.0,88,-99.99,,,0.08,,2013-01-12 19:03:00,
2013-01-12 13:12:00,70.0,66.0,30.00,SSW,193,3.0,-999.0,88,-99.99,,,0.08,,2013-01-12 19:12:00,
2013-01-12 13:23:00,69.0,66.0,29.99,South,187,2.0,-999.0,90,-99.99,,,0.08,,2013-01-12 19:23:00,
2013-01-12 13:33:00,69.0,67.0,29.99,SSW,204,1.0,-999.0,92,-99.99,,,0.09,,2013-01-12 19:33:00,
2013-01-12 13:43:00,69.0,67.0,29.99,SSW,204,1.0,-999.0,92,-99.99,,,0.09,,2013-01-12 19:43:00,
2013-01-12 13:52:00,69.0,67.0,29.98,SSE,147,1.0,-999.0,92,-99.99,,,0.09,,2013-01-12 19:52:00,
2013-01-12 14:03:00,70.0,67.0,29.98,SSE,160,1.0,-999.0,89,-99.99,,,0.09,,2013-01-12 20:03:00,
2013-01-12 14:12:00,70.0,66.0,29.97,South,172,1.0,-999.0,87,-99.99,,,0.09,,2013-01-12 20:12:00,
2013-01-12 14:22:00,70.0,66.0,29.97,South,172,1.0,-999.0,87,-99.99,,,0.09,,2013-01-12 20:22:00,
2013-01-12 14:33:00,71.0,66.0,29.97,SSW,195,3.0,-999.0,85,-99.99,,,0.09,,2013-01-12 20:33:00,
2013-01-12 14:42:00,71.0,66.0,29.97,SSW,195,3.0,-999.0,85,-99.99,,,0.09,,2013-01-12 20:42:00,
2013-01-12 14:53:00,71.0,66.0,29.96,SSE,154,1.0,-999.0,84,-99.99,,,0.09,,2013-01-12 20:53:00,
2013-01-12 15:02:00,72.0,66.0,29.96,South,177,2.0,-999.0,82,-99.99,,,0.09,,2013-01-12 21:02:00,
2013-01-12 15:12:00,72.0,66.0,29.95,ESE,114,3.0,-999.0,81,-99.99,,,0.09,,2013-01-12 21:12:00,
2013-01-12 15:22:00,72.0,66.0,29.95,ESE,114,3.0,-999.0,81,-99.99,,,0.09,,2013-01-12 21:22:00,
2013-01-12 15:33:00,72.0,66.0,29.96,SSE,157,4.0,-999.0,81,-99.99,,,0.09,,2013-01-12 21:33:00,
2013-01-12 15:42:00,72.0,66.0,29.96,SSE,157,4.0,-999.0,81,-99.99,,,0.09,,2013-01-12 21:42:00,
2013-01-12 15:53:00,72.0,66.0,29.96,South,170,3.0,-999.0,81,-99.99,,,0.09,,2013-01-12 21:53:00,
2013-01-12 16:02:00,71.0,65.0,29.96,SE,132,3.0,-999.0,82,-99.99,,,0.09,,2013-01-12 22:02:00,
2013-01-12 16:12:00,71.0,65.0,29.96,SE,132,3.0,-999.0,82,-99.99,,,0.09,,2013-01-12 22:12:00,
2013-01-12 16:22:00,71.0,66.0,29.96,SSE,147,2.0,-999.0,83,-99.99,,,0.09,,2013-01-12 22:22:00,
2013-01-12 16:33:00,71.0,66.0,29.96,SSE,155,2.0,-999.0,83,-99.99,,,0.09,,2013-01-12 22:33:00,
2013-01-12 16:43:00,71.0,66.0,29.96,SSE,155,2.0,-999.0,83,-99.99,,,0.09,,2013-01-12 22:43:00,
2013-01-12 16:53:00,70.0,65.0,29.96,East,100,3.0,-999.0,84,-99.99,,,0.09,,2013-01-12 22:53:00,
2013-01-12 17:02:00,70.0,65.0,29.96,SSW,200,3.0,-999.0,85,-99.99,,,0.09,,2013-01-12 23:02:00,
2013-01-12 17:12:00,69.0,64.0,29.95,SE,143,3.0,-999.0,85,-99.99,,,0.09,,2013-01-12 23:12:00,
2013-01-12 17:22:00,69.0,64.0,29.95,SE,143,3.0,-999.0,85,-99.99,,,0.09,,2013-01-12 23:22:00,
2013-01-12 17:33:00,69.0,64.0,29.95,SE,146,2.0,-999.0,85,-99.99,,,0.09,,2013-01-12 23:33:00,
2013-01-12 17:42:00,69.0,64.0,29.95,SE,146,2.0,-999.0,85,-99.99,,,0.09,,2013-01-12 23:42:00,
2013-01-12 17:52:00,69.0,65.0,29.95,SE,135,2.0,-999.0,86,-99.99,,,0.09,,2013-01-12 23:52:00,
2013-01-12 18:03:00,69.0,65.0,29.95,SE,132,2.0,-999.0,86,-99.99,,,0.09,,2013-01-13 00:03:00,
2013-01-12 18:12:00,69.0,65.0,29.95,SE,132,2.0,-999.0,86,-99.99,,,0.09,,2013-01-13 00:12:00,
2013-01-12 18:22:00,68.0,63.0,29.94,SSE,147,1.0,-999.0,85,-99.99,,,0.09,,2013-01-13 00:22:00,
2013-01-12 18:32:00,68.0,63.0,29.94,ESE,120,0.0,-999.0,85,-99.99,,,0.00,,2013-01-13 00:32:00,
2013-01-12 18:43:00,68.0,63.0,29.94,ESE,120,0.0,-999.0,85,-99.99,,,0.00,,2013-01-13 00:43:00,
2013-01-12 18:53:00,68.0,63.0,29.94,SE,126,1.0,-999.0,84,-99.99,,,0.00,,2013-01-13 00:53:00,
2013-01-12 19:02:00,68.0,63.0,29.93,SSE,155,2.0,-999.0,83,-99.99,,,0.00,,2013-01-13 01:02:00,
2013-01-12 19:12:00,68.0,63.0,29.93,SSE,155,2.0,-999.0,83,-99.99,,,0.00,,2013-01-13 01:12:00,
2013-01-12 19:22:00,68.0,63.0,29.94,SSW,197,2.0,-999.0,83,-99.99,,,0.00,,2013-01-13 01:22:00,
2013-01-12 19:33:00,68.0,63.0,29.93,ESE,120,0.0,-999.0,83,-99.99,,,0.00,,2013-01-13 01:33:00,
2013-01-12 19:43:00,68.0,63.0,29.93,ESE,120,0.0,-999.0,83,-99.99,,,0.00,,2013-01-13 01:43:00,
2013-01-12 19:53:00,68.0,63.0,29.94,ESE,119,1.0,-999.0,83,-99.99,,,0.00,,2013-01-13 01:53:00,
2013-01-12 20:02:00,68.0,62.0,29.94,SE,143,2.0,-999.0,82,-99.99,,,0.00,,2013-01-13 02:02:00,
2013-01-12 20:12:00,68.0,62.0,29.94,SE,143,2.0,-999.0,82,-99.99,,,0.00,,2013-01-13 02:12:00,
2013-01-12 20:22:00,69.0,63.0,29.94,SE,125,2.0,-999.0,81,-99.99,,,0.00,,2013-01-13 02:22:00,
2013-01-12 20:32:00,68.0,62.0,29.93,ESE,120,2.0,-999.0,81,-99.99,,,0.00,,2013-01-13 02:32:00,
2013-01-12 20:42:00,68.0,62.0,29.93,ESE,120,2.0,-999.0,81,-99.99,,,0.00,,2013-01-13 02:42:00,
2013-01-12 20:52:00,68.0,62.0,29.92,ESE,104,4.0,-999.0,81,-99.99,,,0.00,,2013-01-13 02:52:00,
2013-01-12 21:02:00,68.0,62.0,29.93,SSE,160,2.0,-999.0,81,-99.99,,,0.00,,2013-01-13 03:02:00,
2013-01-12 21:12:00,68.0,62.0,29.93,SSE,160,2.0,-999.0,81,-99.99,,,0.00,,2013-01-13 03:12:00,
2013-01-12 21:22:00,68.0,62.0,29.93,SE,132,4.0,-999.0,82,-99.99,,,0.00,,2013-01-13 03:22:00,
2013-01-12 21:33:00,68.0,62.0,29.92,SE,146,4.0,-999.0,82,-99.99,,,0.00,,2013-01-13 03:33:00,
2013-01-12 21:42:00,68.0,62.0,29.92,SE,146,4.0,-999.0,82,-99.99,,,0.00,,2013-01-13 03:42:00,
2013-01-12 21:53:00,68.0,62.0,29.92,South,191,3.0,-999.0,82,-99.99,,,0.00,,2013-01-13 03:53:00,
2013-01-12 22:02:00,67.0,61.0,29.91,SSE,160,3.0,-999.0,82,-99.99,,,0.00,,2013-01-13 04:02:00,
2013-01-12 22:12:00,67.0,61.0,29.91,SSE,160,3.0,-999.0,82,-99.99,,,0.00,,2013-01-13 04:12:00,
2013-01-12 22:22:00,67.0,61.0,29.91,SSE,149,2.0,-999.0,81,-99.99,,,0.00,,2013-01-13 04:22:00,
2013-01-12 22:33:00,67.0,61.0,29.92,ESE,116,3.0,-999.0,81,-99.99,,,0.00,,2013-01-13 04:33:00,
2013-01-12 22:42:00,67.0,61.0,29.92,ESE,116,3.0,-999.0,81,-99.99,,,0.00,,2013-01-13 04:42:00,
2013-01-12 22:52:00,67.0,61.0,29.93,ESE,123,2.0,-999.0,81,-99.99,,,0.00,,2013-01-13 04:52:00,
2013-01-12 23:03:00,67.0,61.0,29.94,SSE,158,2.0,-999.0,80,-99.99,,,0.00,,2013-01-13 05:03:00,
2013-01-12 23:12:00,67.0,61.0,29.94,SSE,158,2.0,-999.0,80,-99.99,,,0.00,,2013-01-13 05:12:00,
2013-01-12 23:22:00,67.0,61.0,29.94,SSE,148,4.0,-999.0,80,-99.99,,,0.00,,2013-01-13 05:22:00,
2013-01-12 23:32:00,67.0,61.0,29.93,SSE,156,2.0,-999.0,80,-99.99,,,0.00,,2013-01-13 05:32:00,
2013-01-12 23:42:00,67.0,61.0,29.93,SSE,156,2.0,-999.0,80,-99.99,,,0.00,,2013-01-13 05:42:00,
2013-01-12 23:53:00,67.0,61.0,29.92,SSE,162,3.0,-999.0,80,-99.99,,,0.00,,2013-01-13 05:53:00,